Weather History for Fullerton, CA

Change the Weather History Date:

Monday, July 15, 2013

  Actual Average Record
Temperature  
Mean Temperature 80 °F 74 °F  
Max Temperature 90 °F 83 °F 101 °F (2006)
Min Temperature 69 °F 65 °F 63 °F (2011)
Degree Days  
Heating Degree Days 0 0  
Month to date heating degree days 0 0  
Since 1 June heating degree days 0 2  
Since 1 July heating degree days 0 0  
Cooling Degree Days 15 9  
Month to date cooling degree days 198 123  
Year to date cooling degree days 828 391  
Since 1 June cooling degree days 473 268  
Growing Degree Days 30 (Base 50)    
Moisture  
Dew Point 59 °F    
Average Humidity 56    
Maximum Humidity 79    
Minimum Humidity 32    
Precipitation  
Precipitation 0.00 in 0.00 in 0.00 in (2014)
Month to date precipitation T 0.02  
Year to date precipitation 2.53 9.67  
Since 1 July precipitation T 0.02  
Snow  
Snow 0.00 in - - ()
Month to date snowfall 0.0  
Year to date snowfall 0.0  
Since 1 July snowfall 0.0  
Snow Depth 0.00 in    
Sea Level Pressure  
Sea Level Pressure 29.84 in    
Wind  
Wind Speed 3 mph (WSW)    
Max Wind Speed 12 mph    
Max Gust Speed 15 mph    
Visibility 9 miles    
Events      
T = Trace of Precipitation, MM = Missing Value Source: NWS Daily Summary

Daily Weather History Graph

Daily Weather History Graph

Search for Another Location

Airport:

Trip Planner

Search our weather history database for the weather conditions in past years. The results will help you decide how hot, cold, wet, or windy it might be!

Date:

Astronomy

Jul. 15, 2013 Rise Set
Actual Time 5:52 AM PDT 8:03 PM PDT
Civil Twilight 5:23 AM PDT 8:31 PM PDT
Nautical Twilight 4:49 AM PDT 9:06 PM PDT
Astronomical Twilight 4:11 AM PDT 9:43 PM PDT
Moon 12:53 PM PDT (7/15) No Moon Set
Length of Visible Light 15h 07m
Length of Day
14h 11m
Waxing Crescent, 46% of the Moon is Illuminated
Jul 15
Waxing Crescent
Jul 15
First Quarter
Jul 22
Full
Jul 29
Last Quarter
Aug 6
New

Hourly Weather History & Observations

Time (PDT) Temp. Heat Index Dew Point Humidity Pressure Visibility Wind Dir Wind Speed Gust Speed Precip Events Conditions
12:53 AM 72.0 °F - 64.0 °F 76% 29.86 in 8.0 mi Calm Calm - N/A   Mostly Cloudy
1:39 AM 71.6 °F - 64.4 °F 78% 29.85 in 9.0 mi Calm Calm - N/A   Scattered Clouds
1:53 AM 72.0 °F - 63.0 °F 73% 29.85 in 9.0 mi Calm Calm - N/A   Partly Cloudy
2:53 AM 71.1 °F - 63.0 °F 75% 29.84 in 10.0 mi Calm Calm - N/A   Clear
3:30 AM 71.6 °F - 62.6 °F 73% 29.84 in 10.0 mi Calm Calm - N/A   Mostly Cloudy
3:53 AM 71.1 °F - 63.0 °F 75% 29.83 in 9.0 mi Calm Calm - N/A   Overcast
4:53 AM 70.0 °F - 62.1 °F 76% 29.83 in 9.0 mi Calm Calm - N/A   Partly Cloudy
5:53 AM 70.0 °F - 62.1 °F 76% 29.84 in 9.0 mi Calm Calm - N/A   Clear
6:45 AM 71.6 °F - 62.6 °F 73% 29.85 in 8.0 mi Calm Calm - N/A   Mostly Cloudy
6:53 AM 71.1 °F - 63.0 °F 75% 29.85 in 8.0 mi Calm Calm - N/A   Mostly Cloudy
7:03 AM 71.6 °F - 62.6 °F 73% 29.85 in 8.0 mi Calm Calm - N/A   Scattered Clouds
7:53 AM 73.0 °F - 63.0 °F 71% 29.86 in 7.0 mi Calm Calm - N/A   Scattered Clouds
8:53 AM 75.0 °F - 63.0 °F 66% 29.86 in 8.0 mi Calm Calm - N/A   Clear
9:53 AM 79.0 °F - 63.0 °F 58% 29.86 in 8.0 mi Calm Calm - N/A   Clear
10:53 AM 82.9 °F 83.7 °F 62.1 °F 49% 29.86 in 10.0 mi Calm Calm - N/A   Clear
11:53 AM 84.0 °F 84.5 °F 62.1 °F 47% 29.85 in 10.0 mi SSW 6.9 mph - N/A   Clear
12:53 PM 84.9 °F 84.2 °F 57.9 °F 40% 29.85 in 10.0 mi SSW 8.1 mph - N/A   Clear
1:53 PM 87.1 °F 85.7 °F 55.9 °F 35% 29.83 in 10.0 mi SW 8.1 mph - N/A   Clear
2:53 PM 89.1 °F 87.1 °F 55.0 °F 31% 29.81 in 10.0 mi South 8.1 mph - N/A   Clear
3:53 PM 89.1 °F 87.7 °F 57.0 °F 34% 29.80 in 10.0 mi South 10.4 mph - N/A   Clear
4:53 PM 89.1 °F 87.3 °F 55.9 °F 32% 29.79 in 10.0 mi Variable 4.6 mph - N/A   Clear
5:53 PM 84.9 °F 83.3 °F 54.0 °F 34% 29.79 in 10.0 mi WNW 8.1 mph - N/A   Clear
6:53 PM 81.0 °F - 51.1 °F 35% 29.79 in 10.0 mi WNW 6.9 mph - N/A   Clear
7:53 PM 78.1 °F - 48.9 °F 36% 29.81 in 10.0 mi West 4.6 mph - N/A   Clear
8:53 PM 75.9 °F - 51.1 °F 42% 29.82 in 10.0 mi West 3.5 mph - N/A   Clear
9:53 PM 73.9 °F - 51.1 °F 45% 29.85 in 10.0 mi NW 4.6 mph - N/A   Clear
10:53 PM 71.1 °F - 52.0 °F 51% 29.86 in 10.0 mi WNW 4.6 mph - N/A   Clear
11:53 PM 70.0 °F - 54.0 °F 57% 29.86 in 10.0 mi Calm Calm - N/A   Clear